When you browse on this site, cookies collect data to enhance your experience and personalize the content and advertising you see.
Visit our Privacy Policy to learn more. By continuing to use the site, you agree to this use of cookies and data.
  • Em Portugal
  • Lista de países
  • Para 7 dias
  • Temperatura da água
  • Mapas de satélite
  • Mapa do tempo
  • Widgets de tempo
  • user-avatar
    Iniciar Sessão

    Previsão horária em Wielany

    Hoje, 26 Abril, Sexta-feira

    Tempo Temperatura Precipitação Vento Pressão Humidade
    00:00 +16°C° 0 mm 2 m/s 751 mmHg 82%
    01:00 +16°C° 0 mm 2 m/s 751 mmHg 81%
    02:00 +15°C° 0 mm 2 m/s 751 mmHg 83%
    03:00 +15°C° 0 mm 2 m/s 750 mmHg 84%
    04:00 +15°C° 0 mm 2 m/s 750 mmHg 85%
    05:00 +16°C° 0 mm 2 m/s 750 mmHg 81%
    06:00 +17°C° 0 mm 3 m/s 750 mmHg 77%
    07:00 +19°C° 0 mm 3 m/s 750 mmHg 72%
    08:00 +20°C° 0 mm 3 m/s 749 mmHg 66%
    09:00 +22°C° 0 mm 3 m/s 749 mmHg 59%
    10:00 +25°C° 0 mm 4 m/s 749 mmHg 52%
    11:00 +26°C° 0 mm 4 m/s 749 mmHg 48%
    12:00 +26°C° 0 mm 4 m/s 749 mmHg 45%
    13:00 +27°C° 0 mm 4 m/s 748 mmHg 42%
    14:00 +27°C° 0 mm 4 m/s 748 mmHg 42%
    15:00 +27°C° 0 mm 3 m/s 748 mmHg 42%
    16:00 +27°C° 0 mm 3 m/s 747 mmHg 42%
    17:00 +26°C° 0 mm 2 m/s 747 mmHg 47%
    18:00 +24°C° 0 mm 2 m/s 747 mmHg 52%
    19:00 +22°C° 0 mm 1 m/s 747 mmHg 57%
    20:00 +21°C° 0 mm 1 m/s 747 mmHg 59%
    21:00 +20°C° 0 mm 1 m/s 747 mmHg 61%
    22:00 +19°C° 0 mm 2 m/s 747 mmHg 64%
    23:00 +19°C° 0 mm 1 m/s 747 mmHg 67%

    Amanhã, 27 Abril, Sábado

    Tempo Temperatura Precipitação Vento Pressão Humidade
    00:00 +18°C° 0 mm 1 m/s 747 mmHg 71%
    01:00 +18°C° 0 mm 1 m/s 747 mmHg 74%
    02:00 +16°C° 0.2 mm 2 m/s 747 mmHg 80%
    03:00 +14°C° 0.2 mm 3 m/s 747 mmHg 86%
    04:00 +14°C° 0.2 mm 3 m/s 747 mmHg 91%
    05:00 +14°C° 0.3 mm 4 m/s 748 mmHg 91%
    06:00 +15°C° 0.3 mm 5 m/s 748 mmHg 90%
    07:00 +15°C° 0.3 mm 6 m/s 749 mmHg 89%
    08:00 +14°C° 0.4 mm 6 m/s 749 mmHg 88%
    09:00 +14°C° 0.4 mm 6 m/s 749 mmHg 87%
    10:00 +13°C° 0.4 mm 6 m/s 750 mmHg 87%
    11:00 +13°C° 0 mm 6 m/s 750 mmHg 84%
    12:00 +12°C° 0 mm 7 m/s 750 mmHg 80%
    13:00 +12°C° 0 mm 7 m/s 751 mmHg 77%
    14:00 +14°C° 0 mm 6 m/s 751 mmHg 75%
    15:00 +14°C° 0 mm 6 m/s 751 mmHg 73%
    16:00 +14°C° 0 mm 6 m/s 751 mmHg 70%
    17:00 +13°C° 0 mm 5 m/s 751 mmHg 71%
    18:00 +12°C° 0 mm 4 m/s 751 mmHg 72%
    19:00 +11°C° 0 mm 3 m/s 751 mmHg 74%
    20:00 +11°C° 0 mm 3 m/s 751 mmHg 74%
    21:00 +10°C° 0 mm 3 m/s 752 mmHg 74%
    22:00 +9°C° 0 mm 3 m/s 752 mmHg 74%
    23:00 +9°C° 0 mm 3 m/s 752 mmHg 73%

    Depois de amanhã, 28 Abril, Domingo

    Tempo Temperatura Precipitação Vento Pressão Humidade
    00:00 +9°C° 0 mm 2 m/s 752 mmHg 73%
    01:00 +9°C° 0 mm 2 m/s 752 mmHg 72%
    02:00 +9°C° 0 mm 2 m/s 752 mmHg 72%
    03:00 +9°C° 0 mm 2 m/s 753 mmHg 73%
    04:00 +9°C° 0 mm 3 m/s 753 mmHg 73%
    05:00 +10°C° 0 mm 4 m/s 753 mmHg 77%
    06:00 +9°C° 0 mm 5 m/s 753 mmHg 80%
    07:00 +10°C° 0 mm 6 m/s 754 mmHg 83%
    08:00 +10°C° 0 mm 6 m/s 754 mmHg 81%
    09:00 +10°C° 0 mm 6 m/s 754 mmHg 78%
    10:00 +11°C° 0 mm 6 m/s 754 mmHg 75%
    11:00 +11°C° 0 mm 6 m/s 754 mmHg 72%
    12:00 +13°C° 0 mm 5 m/s 754 mmHg 70%
    13:00 +14°C° 0 mm 5 m/s 755 mmHg 67%
    14:00 +14°C° 0 mm 5 m/s 755 mmHg 67%
    15:00 +14°C° 0 mm 5 m/s 755 mmHg 67%
    16:00 +14°C° 0 mm 5 m/s 755 mmHg 67%
    17:00 +13°C° 0 mm 4 m/s 755 mmHg 71%
    18:00 +12°C° 0 mm 3 m/s 755 mmHg 75%
    19:00 +12°C° 0 mm 3 m/s 755 mmHg 78%
    20:00 +11°C° 0 mm 3 m/s 755 mmHg 81%
    21:00 +11°C° 0 mm 3 m/s 755 mmHg 84%
    22:00 +10°C° 0 mm 3 m/s 755 mmHg 87%
    23:00 +10°C° 0 mm 3 m/s 755 mmHg 87%

    29 Abril, Segunda-feira

    Tempo Temperatura Precipitação Vento Pressão Humidade
    00:00 +8°C° 0 mm 4 m/s 755 mmHg 86%
    01:00 +8°C° 0 mm 4 m/s 755 mmHg 86%
    02:00 +8°C° 0 mm 4 m/s 754 mmHg 86%
    03:00 +8°C° 0 mm 5 m/s 754 mmHg 86%
    04:00 +7°C° 0 mm 5 m/s 754 mmHg 87%
    05:00 +8°C° 0.1 mm 5 m/s 754 mmHg 88%
    06:00 +8°C° 0.1 mm 6 m/s 754 mmHg 89%
    07:00 +8°C° 0.1 mm 6 m/s 754 mmHg 90%
    08:00 +9°C° 0.6 mm 6 m/s 754 mmHg 91%
    09:00 +9°C° 0.6 mm 6 m/s 754 mmHg 91%
    10:00 +9°C° 0.6 mm 6 m/s 753 mmHg 92%
    11:00 +10°C° 0.7 mm 5 m/s 753 mmHg 92%
    12:00 +11°C° 0.7 mm 4 m/s 753 mmHg 92%
    13:00 +12°C° 0.7 mm 4 m/s 753 mmHg 92%
    14:00 +14°C° 0.3 mm 4 m/s 753 mmHg 87%
    15:00 +15°C° 0.3 mm 4 m/s 753 mmHg 81%
    16:00 +18°C° 0.3 mm 4 m/s 752 mmHg 76%
    17:00 +17°C° 0.5 mm 4 m/s 752 mmHg 80%
    18:00 +14°C° 0.5 mm 3 m/s 752 mmHg 84%
    19:00 +14°C° 0.5 mm 2 m/s 752 mmHg 88%
    20:00 +12°C° 0.1 mm 3 m/s 753 mmHg 90%
    21:00 +12°C° 0.1 mm 3 m/s 753 mmHg 91%
    22:00 +11°C° 0.1 mm 3 m/s 753 mmHg 93%
    23:00 +10°C° 0 mm 3 m/s 753 mmHg 93%

    30 Abril, Terça-feira

    Tempo Temperatura Precipitação Vento Pressão Humidade
    00:00 +9°C° 0 mm 3 m/s 753 mmHg 94%
    01:00 +9°C° 0 mm 3 m/s 753 mmHg 94%
    02:00 +8°C° 0 mm 3 m/s 753 mmHg 94%
    03:00 +8°C° 0 mm 3 m/s 753 mmHg 94%
    04:00 +7°C° 0 mm 3 m/s 754 mmHg 94%
    05:00 +8°C° 0 mm 3 m/s 754 mmHg 89%
    06:00 +9°C° 0 mm 3 m/s 754 mmHg 85%
    07:00 +10°C° 0 mm 4 m/s 754 mmHg 80%
    08:00 +12°C° 0 mm 4 m/s 754 mmHg 73%
    09:00 +13°C° 0 mm 4 m/s 754 mmHg 65%
    10:00 +15°C° 0 mm 4 m/s 754 mmHg 57%
    11:00 +15°C° 0 mm 4 m/s 754 mmHg 53%
    12:00 +17°C° 0 mm 4 m/s 754 mmHg 50%
    13:00 +18°C° 0 mm 4 m/s 753 mmHg 46%
    14:00 +17°C° 0 mm 4 m/s 753 mmHg 47%
    15:00 +17°C° 0 mm 4 m/s 753 mmHg 47%
    16:00 +17°C° 0 mm 4 m/s 753 mmHg 48%
    17:00 +15°C° 0 mm 4 m/s 753 mmHg 53%
    18:00 +14°C° 0 mm 4 m/s 753 mmHg 57%
    19:00 +12°C° 0 mm 4 m/s 753 mmHg 61%
    20:00 +11°C° 0 mm 4 m/s 753 mmHg 64%
    21:00 +10°C° 0 mm 4 m/s 753 mmHg 67%
    22:00 +8°C° 0 mm 5 m/s 753 mmHg 70%
    23:00 +7°C° 0 mm 4 m/s 753 mmHg 72%

    1 Maio, Quarta-feira

    Tempo Temperatura Precipitação Vento Pressão Humidade
    00:00 +6°C° 0 mm 4 m/s 753 mmHg 74%
    01:00 +7°C° 0 mm 3 m/s 753 mmHg 76%
    02:00 +5°C° 0 mm 3 m/s 753 mmHg 77%
    03:00 +5°C° 0 mm 3 m/s 753 mmHg 78%
    04:00 +5°C° 0 mm 2 m/s 753 mmHg 78%
    05:00 +6°C° 0 mm 2 m/s 753 mmHg 75%
    06:00 +8°C° 0 mm 2 m/s 753 mmHg 71%
    07:00 +9°C° 0 mm 2 m/s 753 mmHg 68%
    08:00 +12°C° 0 mm 2 m/s 753 mmHg 62%
    09:00 +13°C° 0 mm 2 m/s 753 mmHg 56%
    10:00 +15°C° 0 mm 2 m/s 753 mmHg 50%
    11:00 +15°C° 0 mm 2 m/s 752 mmHg 48%
    12:00 +15°C° 0 mm 1 m/s 752 mmHg 46%
    13:00 +15°C° 0 mm 1 m/s 752 mmHg 45%
    14:00 +15°C° 0 mm 1 m/s 751 mmHg 46%
    15:00 +15°C° 0 mm 1 m/s 751 mmHg 47%
    16:00 +15°C° 0 mm 1 m/s 751 mmHg 48%
    17:00 +14°C° 0 mm 1 m/s 751 mmHg 52%
    18:00 +12°C° 0 mm 0 m/s 750 mmHg 56%
    19:00 +11°C° 0 mm 0 m/s 750 mmHg 60%
    20:00 +11°C° 0 mm 1 m/s 750 mmHg 60%
    21:00 +11°C° 0 mm 1 m/s 750 mmHg 60%
    22:00 +9°C° 0 mm 2 m/s 750 mmHg 60%
    23:00 +9°C° 0 mm 2 m/s 750 mmHg 63%
    Mostrar mais